weather.gov     
National Weather Service

Terminal Aerodrome Forecast
NWS Homepage
This page is being discontinued on March 12, 2014.
The same data is available at this site. Please update your bookmarks.
Thank you, and we apologize for the inconvenience.
Please send an email to SR-SRH.Webmaster@noaa.gov with any concerns.


Current Version
Previous Version:    01  02  03  04  05  06  07  08  09  10  11  12  13  14  15  16  17  18  19  20  21  22  23  24  25  26  27  28  29  30  
   31  32  33  34  35  36  37  38  39  40  41  
[Printable]
878
FTUS46 KMFR 160500 RRA
TAFOTH
TAF
KOTH 160541Z 1606/1706 19005KT P6SM BKN020
      TEMPO 1606/1610 SCT020
     FM161200 17003KT 2SM BR BKN002 OVC004
     FM161700 VRB04KT 6SM BR BKN008 OVC016
     FM161900 21010KT P6SM BKN020
     FM162000 19010KT P6SM SCT015=


U.S. Dept. of Commerce
NOAA National Weather Service
1325 East West Highway
Silver Spring, MD 20910
E-mail: w-nws.webmaster@noaa.gov
Page last modified: May 16, 2007
NATIONAL WEATHER SERVICE: for Safety, for Work, for Fun - FOR LIFE